CW7218 Weather Reports


time (UTC)temp
F
wind
direction
speed
knots
gust
knots
rain 1hr
in
rain 24hr
in
rain mn
in
humidity
%
barometer
mb
20260509084018 60 90 2.6 6.1 0.00 0.00 0.00 65 1012.3
20260509083018 59 90 4.3 7.8 0.00 0.00 0.00 67 1012.2
20260509082018 59 90 4.3 8.7 0.00 0.00 0.00 67 1012.2
20260509081018 58 90 6.1 9.6 0.00 0.00 0.00 69 1012.2
20260509080018 58 90 6.1 11.3 0.00 0.00 0.00 71 1012.1
20260509075017 58 68 4.3 8.7 0.00 0.00 0.00 71 1012.5
20260509074018 57 45 7.0 10.4 0.00 0.00 0.00 72 1012.4
20260509073038 57 45 8.7 12.2 0.00 0.00 0.00 73 1012.2
20260509072038 56 45 7.8 12.2 0.00 0.00 0.00 76 1012.2
20260509071017 54 45 8.7 12.2 0.00 0.00 0.00 78 1012.3
20260509070038 54 23 7.8 13.0 0.00 0.00 0.00 79 1012.1
20260509065037 53 45 7.0 12.2 0.00 0.00 0.00 81 1012.5
20260509064018 52 23 7.0 11.3 0.00 0.00 0.00 82 1012.6
20260509063017 52 23 7.0 10.4 0.00 0.00 0.00 82 1012.8
20260509062017 51 45 5.2 8.7 0.00 0.00 0.00 83 1013.0
20260509061018 51 45 5.2 7.8 0.00 0.00 0.00 83 1013.0
20260509060017 51 45 3.5 7.0 0.00 0.00 0.00 83 1013.2
20260509055019 51 45 1.7 5.2 0.00 0.00 0.00 83 1013.4
20260509054019 50 315 0.9 1.7 0.00 0.00 0.00 83 1013.4
20260509053019 50 315 2.6 5.2 0.00 0.00 0.00 83 1013.3
20260509052019 50 338 1.7 6.1 0.00 0.00 0.00 83 1013.1
20260509051019 50 45 4.3 7.8 0.00 0.00 0.00 83 1012.9
20260509050019 51 45 4.3 7.8 0.00 0.00 0.00 81 1012.7
20260509045039 51 45 6.1 11.3 0.00 0.00 0.00 81 1012.7
20260509044019 51 45 6.1 9.6 0.00 0.00 0.00 82 1012.7
20260509043019 51 45 6.1 8.7 0.00 0.00 0.00 81 1012.7
20260509042019 51 45 6.1 11.3 0.00 0.00 0.00 81 1012.7
20260509041019 52 45 5.2 8.7 0.00 0.00 0.00 80 1012.8
20260509040039 52 45 5.2 8.7 0.00 0.00 0.00 79 1013.0
20260509035019 52 23 5.2 10.4 0.00 0.00 0.00 79 1013.1
20260509034019 52 45 5.2 9.6 0.00 0.00 0.00 78 1013.1
20260509033019 52 23 5.2 8.7 0.00 0.00 0.00 77 1013.3
20260509032019 53 23 5.2 8.7 0.00 0.00 0.00 80 1013.5
20260509031019 52 0 6.1 9.6 0.00 0.00 0.00 78 1013.3
20260509030019 52 0 6.1 8.7 0.00 0.00 0.00 79 1013.3
20260509025019 52 0 5.2 8.7 0.00 0.00 0.00 80 1013.6
20260509024019 52 0 4.3 5.2 0.00 0.00 0.00 81 1013.5
20260509023019 52 23 3.5 4.3 0.00 0.00 0.00 87 1013.5
20260509022019 53 90 1.7 3.5 0.00 0.00 0.00 89 1013.7
20260509021019 53 90 0.9 2.6 0.00 0.00 0.00 89 1013.8
20260509020019 53 0.0 1.7 0.00 0.00 0.00 88 1014.1
20260509015019 53 0.0 1.7 0.00 0.00 0.00 88 1014.2
20260509014018 53 0.0 1.7 0.00 0.00 0.00 87 1014.3
20260509013018 53 0.0 1.7 0.00 0.00 0.00 87 1014.2
20260509012039 53 135 0.9 1.7 0.00 0.00 0.00 87 1014.2
20260509011018 53 135 0.9 2.6 0.00 0.00 0.00 88 1014.4
20260509010019 53 0.0 2.6 0.00 0.00 0.00 87 1014.4
20260509005018 53 0.0 0.0 0.00 0.00 0.00 87 1014.6
20260509004018 53 0.0 1.7 0.00 0.00 0.00 87 1014.7
20260509003018 53 0.0 1.7 0.00 0.00 0.00 87 1014.8
20260509002018 53 158 0.9 1.7 0.00 0.00 0.00 86 1014.9
20260509001018 53 158 0.9 1.7 0.00 0.00 0.00 86 1014.8
20260509000019 53 0.0 1.7 0.00 0.00 0.00 87 1014.8
20260508235019 53 180 1.7 2.6 0.00 0.00 0.00 86 1014.7
20260508233019 54 0.0 1.7 0.00 0.00 0.00 85 1014.7
20260508232018 54 225 0.9 1.7 0.00 0.00 0.00 84 1014.7
20260508231018 54 0.0 1.7 0.00 0.00 0.00 84 1014.7
20260508230018 54 135 0.9 1.7 0.00 0.00 0.00 84 1014.6
20260508225019 54 158 0.9 2.6 0.00 0.00 0.00 84 1014.7
20260508224019 54 158 0.9 1.7 0.00 0.00 0.00 83 1014.8
20260508223018 55 158 0.9 2.6 0.00 0.00 0.00 83 1014.8
20260508222018 55 158 1.7 3.5 0.00 0.00 0.00 83 1014.9
20260508221018 56 0.0 2.6 0.00 0.00 0.00 81 1015.0
20260508220018 56 0.0 2.6 0.00 0.00 0.00 80 1014.9
20260508215018 55 158 0.9 2.6 0.00 0.00 0.00 80 1014.9
20260508214018 55 158 0.9 2.6 0.00 0.00 0.00 80 1015.1
20260508213018 55 180 1.7 4.3 0.00 0.00 0.00 80 1015.1
20260508212018 56 180 2.6 3.5 0.00 0.00 0.00 80 1015.1
20260508211018 56 203 1.7 3.5 0.00 0.00 0.00 80 1015.0
20260508210018 56 158 0.9 3.5 0.00 0.00 0.00 79 1015.0
20260508205018 56 0.0 1.7 0.00 0.00 0.00 80 1014.8
20260508204018 56 203 0.9 1.7 0.00 0.00 0.00 81 1014.5
20260508203018 56 180 1.7 3.5 0.00 0.00 0.00 80 1014.5
20260508202038 56 180 2.6 4.3 0.00 0.00 0.00 80 1014.4
20260508201018 56 158 2.6 4.3 0.00 0.00 0.00 79 1014.2
20260508200018 56 180 2.6 5.2 0.00 0.01 0.00 79 1014.1
20260508195018 56 203 3.5 7.0 0.00 0.02 0.00 79 1014.1
20260508194018 56 180 4.3 7.0 0.00 0.04 0.00 78 1013.8
20260508193018 57 180 3.5 6.1 0.00 0.06 0.00 78 1013.7
20260508192018 57 180 4.3 6.1 0.00 0.12 0.00 78 1013.5
20260508191018 57 180 4.3 7.8 0.00 0.19 0.00 78 1013.2
20260508190018 57 203 5.2 9.6 0.00 0.31 0.00 78 1013.1
20260508185038 57 203 5.2 8.7 0.00 0.39 0.00 78 1013.1
20260508184018 58 203 6.1 9.6 0.00 0.45 0.00 77 1012.9
20260508183038 58 180 5.2 9.6 0.00 0.67 0.00 75 1012.8
20260508182018 59 180 5.2 9.6 0.00 0.73 0.00 73 1012.6
20260508181018 59 203 5.2 8.7 0.00 0.77 0.00 71 1012.5
20260508180017 60 203 5.2 10.4 0.00 0.82 0.00 68 1012.4
20260508175018 60 203 2.6 6.1 0.00 0.85 0.00 65 1012.3
20260508174018 60 203 4.3 7.8 0.00 0.85 0.00 64 1012.2
20260508173018 60 203 4.3 7.0 0.00 0.85 0.00 63 1012.1
20260508172017 61 203 5.2 7.0 0.00 0.85 0.00 62 1012.1
20260508171018 61 180 3.5 5.2 0.00 0.85 0.00 62 1012.0
20260508170018 61 158 3.5 6.1 0.00 0.85 0.00 61 1011.9
20260508165038 61 180 3.5 5.2 0.00 0.85 0.00 58 1012.0
20260508164017 62 180 3.5 6.1 0.00 0.85 0.00 59 1012.2
20260508163018 62 180 3.5 7.0 0.00 0.85 0.00 58 1012.0
20260508162017 62 180 3.5 6.1 0.00 0.85 0.00 58 1012.2
20260508161037 62 180 3.5 6.1 0.00 0.85 0.00 58 1012.3
20260508160017 62 203 4.3 7.8 0.00 0.85 0.00 57 1012.3
20260508155037 62 180 4.3 7.0 0.00 0.85 0.00 58 1012.3
20260508154017 62 180 3.5 7.8 0.00 0.85 0.00 57 1012.2
20260508153017 62 158 3.5 6.1 0.00 0.85 0.00 58 1012.1
20260508152017 63 180 3.5 8.7 0.00 0.85 0.00 55 1012.2
20260508151039 64 135 2.6 5.2 0.00 0.85 0.00 55 1012.4
20260508150039 63 113 1.7 6.1 0.00 0.85 0.00 55 1012.4
20260508145039 62 135 0.9 3.5 0.00 0.85 0.00 57 1012.4
20260508144019 61 180 0.9 3.5 0.00 0.85 0.00 61 1012.4
20260508143039 60 180 3.5 7.0 0.00 0.85 0.00 62 1012.9
20260508142019 60 180 6.1 11.3 0.00 0.85 0.00 59 1013.2
20260508141019 60 180 7.0 11.3 0.00 0.85 0.00 58 1013.3
20260508140019 61 180 6.1 11.3 0.00 0.85 0.00 54 1013.4
20260508135019 61 180 5.2 7.8 0.00 0.85 0.00 55 1013.4
20260508134019 61 180 6.1 9.6 0.00 0.85 0.00 54 1013.3
20260508133019 62 203 5.2 11.3 0.00 0.85 0.00 53 1013.2
20260508132039 62 180 4.3 8.7 0.00 0.85 0.00 52 1013.0
20260508131019 62 158 5.2 9.6 0.00 0.85 0.00 53 1013.0
20260508130019 62 180 5.2 7.8 0.00 0.85 0.00 53 1013.1
20260508125019 61 203 5.2 8.7 0.00 0.85 0.00 48 1013.1
20260508124019 62 180 3.5 8.7 0.00 0.85 0.00 48 1013.0
20260508123018 62 158 4.3 7.8 0.00 0.85 0.00 49 1013.0
20260508122039 61 180 5.2 10.4 0.00 0.85 0.00 51 1012.9
20260508121019 61 180 5.2 9.6 0.00 0.85 0.00 52 1013.0
20260508120039 62 158 4.3 8.7 0.00 0.85 0.00 49 1013.0
20260508115018 62 180 4.3 7.0 0.00 0.85 0.00 45 1013.0
20260508114019 62 180 2.6 7.0 0.00 0.85 0.00 45 1012.8
20260508113018 61 180 2.6 5.2 0.00 0.85 0.00 48 1012.8
20260508112018 61 180 4.3 8.7 0.00 0.85 0.00 47 1013.1
20260508111018 61 180 3.5 6.1 0.00 0.85 0.00 51 1013.2
20260508110018 61 158 3.5 7.0 0.00 0.85 0.00 50 1013.2
20260508105019 62 135 3.5 7.0 0.00 0.85 0.00 52 1013.4
20260508104018 61 158 3.5 7.0 0.00 0.85 0.00 52 1013.5
20260508103019 61 158 3.5 6.1 0.00 0.85 0.00 54 1013.5
20260508102018 60 180 4.3 7.8 0.00 0.85 0.00 57 1013.7
20260508101019 61 180 3.5 7.8 0.00 0.85 0.00 60 1013.7
20260508100018 60 203 4.3 8.7 0.00 0.85 0.00 59 1013.8
20260508095038 59 180 4.3 7.0 0.00 0.85 0.00 60 1013.9
20260508094018 59 180 3.5 7.0 0.00 0.85 0.00 59 1013.7
20260508093018 59 158 3.5 6.1 0.00 0.85 0.00 58 1013.4
20260508092018 59 158 3.5 6.1 0.00 0.85 0.00 62 1013.3
20260508091058 59 158 2.6 5.2 0.00 0.85 0.00 62 1013.2
20260508090018 59 158 2.6 5.2 0.00 0.85 0.00 62 1013.0
20260508085018 59 158 1.7 5.2 0.00 0.85 0.00 62 1012.9